When you browse on this site, cookies collect data to enhance your experience and personalize the content and advertising you see.
Visit our Privacy Policy to learn more. By continuing to use the site, you agree to this use of cookies and data.
EN

Hourly Weather Novaya Derevnya

Today, 20 September, Sunday

Time Temperature Precipitation Wind Pressure Humidity
00:00 +7°C° 0 mm 3 mps 746 mmHg 84%
01:00 +6°C° 0 mm 4 mps 746 mmHg 85%
02:00 +6°C° 0 mm 4 mps 746 mmHg 86%
03:00 +5°C° 0 mm 5 mps 746 mmHg 86%
04:00 +5°C° 0 mm 5 mps 746 mmHg 87%
05:00 +5°C° 0 mm 5 mps 746 mmHg 88%
06:00 +5°C° 0 mm 5 mps 746 mmHg 90%
07:00 +5°C° 0 mm 6 mps 746 mmHg 84%
08:00 +8°C° 0 mm 6 mps 746 mmHg 78%
09:00 +9°C° 0 mm 7 mps 747 mmHg 72%
10:00 +9°C° 0 mm 7 mps 747 mmHg 67%
11:00 +10°C° 0 mm 8 mps 747 mmHg 62%
12:00 +11°C° 0 mm 8 mps 748 mmHg 58%
13:00 +11°C° 0 mm 8 mps 748 mmHg 57%
14:00 +11°C° 0 mm 8 mps 748 mmHg 56%
15:00 +11°C° 0 mm 7 mps 749 mmHg 55%
16:00 +10°C° 0 mm 7 mps 749 mmHg 55%
17:00 +10°C° 0 mm 6 mps 749 mmHg 55%
18:00 +10°C° 0 mm 5 mps 750 mmHg 55%
19:00 +10°C° 0 mm 4 mps 750 mmHg 59%
20:00 +8°C° 0 mm 4 mps 751 mmHg 63%
21:00 +7°C° 0 mm 4 mps 751 mmHg 67%
22:00 +8°C° 0 mm 3 mps 751 mmHg 69%
23:00 +7°C° 0 mm 3 mps 751 mmHg 72%

Tomorrow, 21 September, Monday

Time Temperature Precipitation Wind Pressure Humidity
00:00 +7°C° 0 mm 3 mps 752 mmHg 74%
01:00 +5°C° 0 mm 3 mps 752 mmHg 77%
02:00 +5°C° 0 mm 3 mps 752 mmHg 79%
03:00 +4°C° 0 mm 3 mps 753 mmHg 82%
04:00 +4°C° 0 mm 3 mps 752 mmHg 83%
05:00 +4°C° 0 mm 3 mps 752 mmHg 84%
06:00 +4°C° 0 mm 3 mps 752 mmHg 86%
07:00 +6°C° 0 mm 4 mps 752 mmHg 78%
08:00 +8°C° 0 mm 5 mps 753 mmHg 71%
09:00 +9°C° 0 mm 5 mps 753 mmHg 63%
10:00 +10°C° 0 mm 6 mps 752 mmHg 59%
11:00 +13°C° 0 mm 6 mps 752 mmHg 55%
12:00 +14°C° 0 mm 7 mps 752 mmHg 51%
13:00 +14°C° 0 mm 7 mps 752 mmHg 51%
14:00 +14°C° 0 mm 7 mps 751 mmHg 51%
15:00 +15°C° 0 mm 7 mps 751 mmHg 51%
16:00 +14°C° 0 mm 6 mps 751 mmHg 55%
17:00 +13°C° 0 mm 5 mps 751 mmHg 59%
18:00 +12°C° 0 mm 4 mps 751 mmHg 63%
19:00 +11°C° 0 mm 4 mps 751 mmHg 66%
20:00 +11°C° 0 mm 4 mps 751 mmHg 70%
21:00 +10°C° 0 mm 4 mps 752 mmHg 73%
22:00 +10°C° 0 mm 4 mps 752 mmHg 74%
23:00 +10°C° 0 mm 3 mps 752 mmHg 76%

Day after tomorrow, 22 September, Tuesday

Time Temperature Precipitation Wind Pressure Humidity
00:00 +10°C° 0 mm 3 mps 752 mmHg 78%
01:00 +9°C° 0 mm 3 mps 752 mmHg 79%
02:00 +9°C° 0 mm 3 mps 752 mmHg 81%
03:00 +9°C° 0 mm 3 mps 752 mmHg 82%
04:00 +8°C° 0 mm 3 mps 752 mmHg 84%
05:00 +8°C° 0 mm 3 mps 752 mmHg 87%
06:00 +8°C° 0 mm 3 mps 752 mmHg 89%
07:00 +10°C° 0 mm 4 mps 752 mmHg 83%
08:00 +11°C° 0 mm 4 mps 752 mmHg 77%
09:00 +13°C° 0 mm 5 mps 752 mmHg 70%
10:00 +15°C° 0 mm 5 mps 752 mmHg 66%
11:00 +16°C° 0 mm 6 mps 752 mmHg 62%
12:00 +19°C° 0 mm 6 mps 752 mmHg 58%
13:00 +19°C° 0 mm 6 mps 752 mmHg 56%
14:00 +20°C° 0 mm 7 mps 752 mmHg 55%
15:00 +21°C° 0 mm 7 mps 752 mmHg 53%
16:00 +19°C° 0 mm 6 mps 751 mmHg 56%
17:00 +17°C° 0 mm 5 mps 751 mmHg 58%
18:00 +16°C° 0 mm 5 mps 751 mmHg 61%
19:00 +16°C° 0 mm 5 mps 751 mmHg 63%
20:00 +15°C° 0 mm 5 mps 751 mmHg 65%
21:00 +14°C° 0 mm 5 mps 752 mmHg 66%
22:00 +14°C° 0 mm 5 mps 751 mmHg 69%
23:00 +13°C° 0 mm 4 mps 751 mmHg 71%

23 September, Wednesday

Time Temperature Precipitation Wind Pressure Humidity
00:00 +13°C° 0 mm 4 mps 751 mmHg 73%
01:00 +12°C° 0 mm 4 mps 752 mmHg 77%
02:00 +11°C° 0 mm 4 mps 752 mmHg 80%
03:00 +11°C° 0 mm 3 mps 752 mmHg 84%
04:00 +10°C° 0 mm 3 mps 752 mmHg 86%
05:00 +10°C° 0 mm 3 mps 752 mmHg 89%
06:00 +10°C° 0 mm 3 mps 752 mmHg 92%
07:00 +11°C° 0 mm 3 mps 752 mmHg 84%
08:00 +13°C° 0 mm 3 mps 753 mmHg 77%
09:00 +16°C° 0 mm 3 mps 753 mmHg 70%
10:00 +18°C° 0 mm 3 mps 753 mmHg 63%
11:00 +20°C° 0 mm 3 mps 753 mmHg 57%
12:00 +21°C° 0 mm 3 mps 753 mmHg 51%
13:00 +22°C° 0 mm 3 mps 753 mmHg 48%
14:00 +22°C° 0 mm 3 mps 753 mmHg 46%
15:00 +24°C° 0 mm 3 mps 752 mmHg 44%
16:00 +21°C° 0 mm 2 mps 752 mmHg 50%
17:00 +20°C° 0 mm 2 mps 752 mmHg 56%
18:00 +19°C° 0 mm 1 mps 752 mmHg 61%
19:00 +18°C° 0 mm 1 mps 752 mmHg 64%
20:00 +18°C° 0 mm 1 mps 753 mmHg 66%
21:00 +16°C° 0 mm 1 mps 753 mmHg 69%
22:00 +16°C° 0 mm 1 mps 753 mmHg 70%
23:00 +15°C° 0 mm 1 mps 753 mmHg 72%

24 September, Thursday

Time Temperature Precipitation Wind Pressure Humidity
00:00 +15°C° 0 mm 2 mps 753 mmHg 74%
01:00 +14°C° 0 mm 2 mps 753 mmHg 75%
02:00 +14°C° 0 mm 2 mps 753 mmHg 76%
03:00 +13°C° 0 mm 2 mps 754 mmHg 78%
04:00 +13°C° 0 mm 2 mps 754 mmHg 79%
05:00 +13°C° 0 mm 1 mps 754 mmHg 80%
06:00 +12°C° 0 mm 1 mps 754 mmHg 81%
07:00 +14°C° 0 mm 2 mps 754 mmHg 74%
08:00 +16°C° 0 mm 2 mps 754 mmHg 67%
09:00 +18°C° 0 mm 2 mps 754 mmHg 60%
10:00 +19°C° 0 mm 2 mps 754 mmHg 55%
11:00 +21°C° 0 mm 2 mps 754 mmHg 51%
12:00 +23°C° 0 mm 2 mps 754 mmHg 46%
13:00 +24°C° 0 mm 2 mps 754 mmHg 44%
14:00 +24°C° 0 mm 2 mps 754 mmHg 42%
15:00 +25°C° 0 mm 2 mps 754 mmHg 40%
16:00 +23°C° 0 mm 2 mps 754 mmHg 44%
17:00 +21°C° 0 mm 2 mps 754 mmHg 48%
18:00 +19°C° 0 mm 2 mps 754 mmHg 52%
19:00 +19°C° 0 mm 2 mps 754 mmHg 55%
20:00 +18°C° 0 mm 3 mps 754 mmHg 57%
21:00 +17°C° 0 mm 3 mps 754 mmHg 59%
22:00 +16°C° 0 mm 3 mps 754 mmHg 60%
23:00 +16°C° 0 mm 3 mps 754 mmHg 60%

25 September, Friday

Time Temperature Precipitation Wind Pressure Humidity
00:00 +14°C° 0 mm 3 mps 755 mmHg 61%
01:00 +14°C° 0 mm 3 mps 755 mmHg 62%
02:00 +13°C° 0 mm 3 mps 755 mmHg 63%
03:00 +13°C° 0 mm 3 mps 755 mmHg 65%
04:00 +12°C° 0 mm 3 mps 755 mmHg 66%
05:00 +12°C° 0 mm 3 mps 755 mmHg 68%
06:00 +11°C° 0 mm 3 mps 755 mmHg 69%
07:00 +13°C° 0 mm 3 mps 755 mmHg 63%
08:00 +15°C° 0 mm 4 mps 755 mmHg 57%
09:00 +17°C° 0 mm 4 mps 755 mmHg 51%
10:00 +19°C° 0 mm 4 mps 755 mmHg 46%
11:00 +21°C° 0 mm 5 mps 755 mmHg 42%
12:00 +23°C° 0 mm 5 mps 755 mmHg 37%
13:00 +23°C° 0 mm 5 mps 755 mmHg 36%
14:00 +23°C° 0 mm 5 mps 755 mmHg 35%
15:00 +23°C° 0 mm 5 mps 755 mmHg 34%
16:00 +22°C° 0 mm 4 mps 754 mmHg 38%
17:00 +20°C° 0 mm 4 mps 754 mmHg 41%
18:00 +18°C° 0 mm 4 mps 754 mmHg 44%
19:00 +18°C° 0 mm 4 mps 754 mmHg 43%
20:00 +17°C° 0 mm 4 mps 754 mmHg 43%
21:00 +15°C° 0 mm 4 mps 755 mmHg 43%
22:00 +14°C° 0 mm 4 mps 755 mmHg 44%
23:00 +13°C° 0 mm 4 mps 755 mmHg 46%
Show more